FENGYUN 1C DEB

基本信息
目录编号:
31281
目录名称:
FENGYUN 1C DEB
国际标识:
1999-025BNP
轨道中心:
EARTH
物体状态:
在轨
发射日期:
1999-05-10 UTC
轨道信息
数据来源: 国际轨道数据
星历时间: 2026-09-04T18:33:09+0800
半长轴: 6826.688km
偏心率: 0.007125
轨道倾角: 98.406°
近地点辐角: 254.060°
升交点赤经: 61.251°
平近点角: 105.278°
近地点: 399.91km
远地点: 497.192km
周期: 93.557分钟
每日圈数: 15.391739
详细信息
发射场:
TSC
轨道高度:
LEO
数据来源:
AOE Integration Group
参考系:
TEME
时间系统:
UTC
历元类型:
SGP4
2D轨道图
3D轨道图
轨道高度分析图
轨道倾角分析图
轨道综合分析图
查看轨道综合分析图